Theta_e
316 317 318 319 318 318 318 319 319 320 320 319 320 319 317 317 318 319 320 319 320 320 319 317 318 320 319 319 325 326 326 327 322 325 331 332 334 335 334 338 340 342 340
315 316 317 318 319 318 318 318 319 318 320 319 319 318 316 316 317 317 316 317 317 318 318 318 317 317 320 322 320 325 328 325 326 322 326 327 331 332 331 332 334 338 339
314 314 316 318 318 319 319 320 319 318 318 319 319 317 316 316 315 317 317 317 317 317 318 317 317 317 317 319 321 320 323 326 326 322 320 328 331 330 329 329 330 333 336
314 313 313 314 317 318 319 319 318 318 318 319 318 316 317 316 315 316 316 317 318 318 318 318 318 316 316 317 319 321 321 322 325 323 321 321 326 327 326 322 322 327 328
312 310 312 313 316 318 318 317 317 317 318 317 315 316 316 315 312 313 315 316 317 317 318 318 318 315 313 313 316 320 322 319 318 320 321 320 320 319 319 320 319 321 325
316 313 313 312 310 313 314 311 311 312 312 314 315 314 314 313 305 303 306 315 316 316 316 318 319 316 314 311 310 311 314 319 318 316 315 313 316 315 316 314 312 315 315
313 313 311 310 308 307 307 307 309 312 314 312 314 314 312 314 300 300 304 314 314 315 315 316 313 312 313 313 312 311 312 309 308 317 315 313 312 314 314 313 314 311 313
313 311 309 307 306 307 307 308 310 309 311 311 312 312 312 311 300 299 301 312 312 311 311 312 311 311 307 304 310 313 314 315 314 310 311 313 314 314 314 313 313 315 314
307 305 307 305 306 305 305 308 309 309 310 310 310 309 309 310 298 298 302 309 309 309 309 310 307 309 301 299 305 307 304 307 310 305 304 302 300 300 303 310 308 309 308
306 306 307 307 307 307 307 308 309 309 308 308 308 309 305 308 300 297 300 306 306 306 308 309 304 304 298 297 305 306 303 305 309 311 312 312 310 313 305 313 313 309 310
307 305 304 304 306 307 307 308 308 308 308 306 306 306 307 306 306 297 297 304 304 304 305 305 306 298 295 293 295 306 305 304 305 308 309 310 311 313 313 316 318 316 313
305 304 303 305 304 304 305 306 307 307 303 303 304 304 305 305 300 298 296 296 298 303 304 305 304 296 295 294 298 296 296 299 308 307 307 308 309 310 313 315 319 320 321
305 304 304 304 304 305 304 304 304 303 301 300 299 300 300 302 302 299 296 296 298 302 303 300 297 296 296 299 299 298 299 303 302 302 302 303 306 309 310 314 318 320 321
305 303 304 303 302 305 304 304 302 302 301 301 297 297 299 300 300 301 302 303 301 302 301 303 300 299 297 299 300 300 302 302 301 300 300 301 303 303 304 306 308 312 314
301 303 303 302 302 302 303 303 303 303 300 300 299 298 296 296 298 295 294 299 301 299 299 302 300 298 297 296 297 298 300 302 301 301 301 300 300 301 301 303 303 305 306
304 302 301 302 302 301 301 301 295 294 294 293 292 294 298 294 292 292 292 291 292 293 299 297 297 296 297 297 296 295 296 296 297 299 300 300 298 299 300 302 302 301 301
303 303 303 301 302 301 301 300 298 298 295 293 292 292 292 291 291 291 292 292 293 295 299 299 298 298 297 297 295 295 294 295 298 297 296 298 299 298 298 298 299 299 300
304 295 303 303 303 303 303 301 300 297 296 297 295 293 292 292 291 291 292 294 299 299 300 298 297 298 296 294 293 293 293 295 297 297 298 298 299 298 298 297 297 297 298
303 304 303 303 303 301 304 304 301 298 298 298 300 296 296 293 292 293 293 301 299 297 295 297 297 296 294 293 293 294 295 294 294 297 297 297 298 297 296 296 297 290 292
303 296 295 301 302 303 303 302 301 299 298 297 297 297 298 296 298 299 301 301 300 298 298 296 294 294 293 293 293 294 295 295 295 296 297 297 297 297 295 296 298 297 296
302 302 289 303 300 300 300 302 302 299 298 298 298 295 285 295 295 297 299 299 298 298 297 296 294 293 292 292 292 293 293 294 295 295 296 296 297 296 297 297 297 297 296
301 302 302 302 301 299 298 301 301 300 297 297 297 295 287 295 295 295 296 297 298 298 298 296 295 294 293 292 292 293 292 293 294 295 295 295 296 296 296 296 296 295 294
302 301 300 301 301 294 297 297 299 300 296 296 295 294 294 294 294 293 294 294 294 295 295 294 293 293 293 292 292 292 292 291 292 294 294 295 295 295 295 295 295 294 293
302 301 299 299 300 298 297 296 298 292 294 295 295 294 294 293 292 292 292 291 292 292 293 292 292 291 291 291 292 292 293 291 291 293 293 294 294 294 295 294 293 294 294
302 300 299 299 298 299 298 297 297 296 296 295 294 294 294 292 292 292 292 292 291 291 291 292 292 291 291 291 291 290 288 284 287 285 292 294 295 296 295 295 294 294 294
300 299 299 299 298 299 298 297 296 297 295 295 295 295 294 293 292 292 292 292 291 291 291 292 291 290 290 290 289 284 284 284 286 283 287 295 295 295 294 294 294 293 294
Wind_Speed
5 3 3 2 3 4 4 4 4 5 5 6 7 8 10 11 11 9 8 8 9 8 7 7 7 5 6 6 5 4 3 2 1 3 3 4 4 7 6 6 5 7 6
5 4 5 5 5 6 6 6 5 6 5 6 6 8 9 10 10 9 9 9 9 8 8 8 9 8 9 7 6 7 7 5 3 4 3 2 1 2 5 7 6 5 4
6 6 6 7 6 7 8 8 7 6 6 6 5 8 10 10 11 10 9 9 9 9 7 8 8 8 9 9 8 8 8 7 6 9 6 3 3 3 2 1 5 6 5
7 7 7 6 9 9 10 9 8 6 6 5 6 8 9 11 12 10 11 11 10 9 6 6 7 8 9 11 9 9 8 8 7 7 6 6 3 4 6 7 6 6 6
4 6 5 4 6 9 8 6 6 5 5 5 7 8 9 10 8 13 12 12 11 10 7 6 5 7 6 7 8 9 8 7 7 6 6 4 4 7 7 7 8 8 7
5 4 4 7 7 9 10 9 8 6 5 7 7 8 9 8 12 15 11 9 10 8 8 8 8 6 7 7 9 8 7 7 6 6 5 5 6 7 6 7 8 9 8
4 7 7 5 5 5 5 7 7 10 9 9 9 9 9 9 12 11 11 7 8 8 9 8 8 6 7 9 8 7 2 3 3 7 7 6 7 8 9 10 8 9 10
6 6 7 7 6 7 6 7 9 10 10 9 8 8 8 4 9 12 14 9 8 8 9 9 8 7 6 9 11 10 10 9 6 4 5 9 9 9 9 10 11 12 11
5 5 5 4 5 5 6 9 9 8 8 7 6 6 6 6 7 10 13 10 9 10 9 8 8 9 8 9 11 11 9 10 8 8 9 12 12 11 10 8 9 9 9
4 4 5 6 7 7 7 8 8 8 7 6 6 6 4 7 6 8 10 8 9 9 10 8 3 8 11 10 11 11 11 12 11 13 12 11 9 10 9 9 9 9 9
5 4 4 5 6 6 7 7 7 6 7 7 8 5 6 5 6 7 10 9 8 9 8 7 7 10 15 15 11 10 11 13 14 12 11 10 10 10 9 7 8 9 8
3 4 4 6 5 6 7 6 6 6 7 7 9 8 7 8 6 7 10 8 10 8 8 7 8 12 11 12 10 10 11 10 8 9 9 9 9 9 9 9 9 10 9
4 5 6 6 6 6 6 6 6 6 5 5 6 7 8 6 6 3 7 8 8 8 7 9 12 9 9 5 8 9 9 5 5 5 6 8 9 8 11 10 10 10 10
4 5 5 6 7 6 5 5 3 5 7 6 7 7 7 7 7 8 10 8 5 6 8 4 7 6 5 6 7 6 5 5 5 5 5 6 6 6 6 8 9 8 7
2 3 5 5 5 5 5 5 6 5 5 7 7 6 7 9 10 11 9 7 7 7 8 6 5 6 7 7 6 7 7 6 6 6 6 6 7 6 5 5 7 8 8
2 4 4 4 4 5 5 4 5 4 8 6 7 6 6 9 10 12 10 7 7 6 3 2 6 6 7 9 8 8 6 6 7 9 7 5 6 7 8 6 6 6 6
3 3 2 3 4 4 5 5 7 5 1 3 6 7 6 9 9 8 9 9 6 5 2 4 6 7 8 9 9 8 9 7 8 5 6 7 7 6 6 7 7 8 8
3 2 3 3 4 4 4 4 4 6 7 7 6 5 7 9 10 9 10 5 1 3 5 5 6 8 8 9 8 8 9 8 7 7 7 7 6 6 6 6 6 7 7
3 3 4 5 4 4 3 1 2 4 5 6 6 4 8 10 5 7 8 4 5 5 3 5 6 7 8 8 8 8 8 7 7 7 7 7 6 5 6 7 7 7 7
3 2 6 5 4 3 3 3 1 3 4 6 7 8 8 8 7 8 7 6 6 5 5 6 6 7 7 7 8 8 8 8 7 7 7 7 6 7 7 7 7 7 7
4 4 3 2 4 5 4 3 2 3 5 5 5 5 5 6 6 6 7 6 5 5 6 6 7 6 6 7 7 7 8 8 7 7 7 7 8 8 8 7 7 8 8
4 3 3 3 3 4 5 4 3 3 5 5 5 4 5 5 6 6 6 6 6 5 6 6 6 6 6 7 7 8 8 9 9 8 8 8 8 8 8 9 9 9 8
3 3 3 3 2 2 4 4 3 2 4 4 5 5 5 5 5 6 6 6 6 6 6 6 6 6 6 7 6 6 7 9 9 9 9 9 9 9 10 9 10 9 9
3 3 3 3 2 3 4 4 3 2 4 4 4 4 5 5 5 6 5 5 5 6 6 6 6 8 8 8 7 8 7 9 9 9 12 9 10 10 10 10 10 12 9
2 3 3 3 4 2 2 3 3 4 4 4 4 4 4 4 4 4 5 5 5 5 6 6 6 9 10 11 11 14 12 10 10 10 9 10 11 14 12 11 11 10 11
3 4 3 3 3 3 3 3 3 3 4 3 3 3 4 4 4 4 4 5 5 5 7 6 8 11 12 10 13 14 11 11 11 11 10 8 9 11 11 13 14 9 11
Wind_Direction
218 236 274 301 306 303 308 316 326 327 337 342 349 354 357 358 356 348 345 349 342 343 356 348 343 332 327 322 330 328 305 290 290 296 304 313 2 355 346 344 320 271 255
231 254 268 282 282 282 278 278 286 297 310 315 324 334 342 346 347 341 334 334 331 329 337 342 344 342 334 329 323 308 306 287 259 296 259 299 266 10 339 342 341 343 274
236 256 262 270 276 274 276 278 274 280 297 308 319 330 328 331 334 327 328 324 322 318 319 329 339 335 334 332 320 303 305 307 295 280 293 285 286 342 337 339 350 339 313
247 254 268 286 294 293 290 289 282 281 286 296 316 320 321 323 321 323 325 318 314 315 305 310 321 331 337 333 317 309 300 300 302 279 286 294 298 348 317 336 347 347 342
276 276 276 288 313 325 328 330 307 299 306 314 315 320 323 320 322 336 320 313 311 313 306 301 319 331 348 351 324 326 308 297 304 308 306 296 289 324 327 327 308 319 326
329 336 35 69 43 29 17 349 344 317 306 302 309 313 315 318 8 335 328 318 321 315 314 313 314 286 346 351 351 347 358 328 315 317 310 324 325 324 331 324 317 310 310
88 87 76 53 37 20 18 323 334 317 316 306 314 321 323 326 358 341 345 344 337 341 333 331 324 348 345 343 337 306 305 351 13 329 331 326 313 328 317 307 308 302 293
71 51 52 38 22 353 1 303 306 314 315 313 316 322 320 360 358 355 341 351 350 355 353 345 339 342 9 351 328 326 325 317 311 315 304 303 305 317 299 291 295 291 278
83 86 31 39 323 327 321 319 315 307 314 319 327 340 333 331 22 6 346 329 333 329 329 332 338 328 18 351 330 318 315 303 299 256 271 279 280 275 265 286 274 285 293
29 11 5 357 349 340 326 326 323 327 332 331 339 346 338 328 43 4 354 328 328 327 316 324 325 355 341 334 318 306 300 297 303 308 304 295 276 287 242 256 278 278 293
35 37 25 360 339 338 325 322 321 328 332 333 332 326 328 358 2 14 359 333 340 323 323 327 343 22 328 318 309 297 303 312 295 285 288 288 294 292 291 281 268 268 279
71 46 4 353 343 334 323 326 320 323 328 321 333 339 360 353 6 6 342 332 332 316 316 332 331 336 312 307 311 337 305 288 277 283 280 282 296 310 319 303 294 274 270
61 26 2 351 349 345 329 327 321 352 349 338 333 345 337 335 324 271 310 314 321 326 334 324 304 306 311 318 340 332 335 354 345 335 333 335 335 334 322 316 294 275 270
49 19 354 338 341 347 341 353 328 342 342 337 346 331 341 339 340 355 333 333 340 339 342 344 350 345 342 339 345 353 345 349 341 343 328 322 322 335 338 343 327 322 296
13 9 358 351 353 354 359 357 357 6 343 328 341 337 336 333 345 323 304 314 340 347 317 2 1 2 357 355 350 350 334 347 354 340 336 333 326 326 330 334 337 336 326
334 12 23 7 13 21 17 21 136 16 347 332 316 296 316 303 316 318 324 300 322 335 15 338 9 1 358 360 356 348 341 344 342 333 331 329 340 336 338 327 332 322 314
334 348 360 323 352 4 13 7 360 33 66 349 354 336 320 301 308 322 357 310 314 338 354 6 10 0 358 353 347 343 341 344 328 334 323 322 336 334 332 335 335 332 322
323 216 305 333 339 335 359 5 10 13 12 23 61 341 347 339 339 335 330 299 45 351 7 10 357 359 351 348 346 344 340 335 338 337 335 326 328 319 315 316 326 329 321
326 333 325 310 308 300 302 301 5 16 16 7 5 3 13 346 315 290 297 352 13 25 6 349 4 355 351 348 346 341 337 338 325 326 334 329 334 331 320 316 312 305 309
323 303 294 310 320 325 284 303 324 355 350 359 0 3 358 338 10 9 12 359 16 40 20 10 359 353 352 345 344 341 338 343 339 332 332 326 325 323 316 312 302 299 292
332 337 334 302 22 8 357 331 311 328 344 349 353 22 330 321 354 4 17 20 25 20 6 359 352 357 347 342 341 337 338 339 340 332 327 327 319 315 312 297 291 288 289
322 333 330 357 12 9 7 355 309 327 343 346 350 20 321 346 358 2 2 357 357 354 354 347 349 350 346 342 338 338 343 341 343 338 329 325 323 318 313 307 305 306 305
294 308 324 323 345 347 354 6 353 343 357 359 354 359 358 358 353 354 353 351 343 346 347 346 353 350 345 344 341 336 331 339 333 326 320 321 321 328 321 312 314 314 304
273 298 323 342 328 331 3 14 33 12 341 347 350 354 352 354 353 359 351 351 351 353 354 350 352 349 344 347 345 339 336 345 323 324 325 312 317 320 322 318 309 309 301
264 280 290 323 317 312 331 347 345 339 346 346 343 344 352 353 354 2 358 355 350 350 352 348 349 345 347 346 347 346 345 321 316 320 312 305 311 325 331 324 319 313 304
279 275 280 295 300 270 293 317 330 332 331 338 334 338 343 343 345 344 349 353 347 349 347 348 346 345 343 345 350 331 312 320 321 321 317 307 320 328 335 326 320 319 308